NOAA 16 DEB, 41349

Orbit data source: Space-Track

NOAA 16 DEB, 41349 is space debris in SSO originally from a launch on Thu, 21 Sep 2000 UTC launched from the Air Force Western Test Range (AFWTR). Debris objects in space refer to the collection of defunct objects orbiting the Earth. Examples of debris include non-operational satellites, rocket bodies, and fragments generated from explosions, collisions, or faulty payload assembly.

Loading next visibility...
Identifier
41349, 2000-055HS
Orbit
SSO
Country
Flag of USUS
Related business
Manufacturer
Unknown
Mission
Spacecraft
Bus & Motor
Unknown
Mass
Unknown
Launch date (UTC)
2000-09-21 (25 years ago)
Launch vehicle
Unknown
Launch site
Air Force Western Test Range (AFWTR)
Object type
Payload
Rocket body
Debris
Shape & HBR
Unknown shape, 0.1 m
Radar Cross Section
Small (<0.1 m²)

Expand to show TLE details & history
Last TLE update: 2 days ago

TLE from 2 days ago
0 NOAA 16 DEB
1 41349U 00055HS  25292.47278418  .00016133  00000-0  41923-2 0  9997
2 41349  98.9813 122.5315 0030490 103.5123 256.9469 14.49456675508523
Epoch: 2025-10-19T11:20Z
TLE epoch observation values (Epoch: 2025-10-19T11:20:48.553Z)
Latitude
-0.00001°
Longitude
-75.85975°
Altitude
735.326 km
Speed
7.485 km/s
True Right ascension
08h 10m 07s
True Declination
0° 00' 00"
Sunlit
Object was in daylight at epoch
Visualization orbit readout
Latitude
Unknown
Longitude
Unknown
Altitude
Unknown
Speed
Unknown
Apparent Right ascension
Unknown
Apparent Declination
Unknown
Sunlit
N/A
Visualization observer readout
Local Sidereal Time
09:04:24
Azimuth
Unknown
Elevation
Unknown
Doppler factor
Unknown
Orbital elements
Apogee altitude
746.212 km
Perigee altitude
702.9 km
Semi-major axis
7,102.693 km
Eccentricity
0.00305
Inclination
98.9813°
RAAN
122.5315°
Arg. of periapsis
103.5123°
True anomaly
256.60683°
Mean anomaly
256.9469°
Eccentric anomaly
256.77684°
Mean motion
3.62584 °/min
Orbital period
99.29 mins
BSTAR
0.0041923
Loading maneuver chart data...
Computing Atmospheric mass density...

Documentation

Showing up to 5 results
|